Location: Moscow
(55.7500°N, 37.5830°E)
Time: 05:26:45
(UTC+03:00)

Vanguard 1 - Pass Details

Date: 30 November 2021
Orbit: 652 x 3830 km, 34.2° (Epoch: 21 January)

Event Time Altitude Azimuth Distance (km) Brightness Sun altitude
Rises 04:41:47 0° 257° (WSW) 7,949 - -31.3°
Reaches altitude 10° 04:48:17 10° 249° (WSW) 6,765 - -30.3°
Exits shadow 04:58:00 26° 229° (SW) 5,063 13.2 -29.0°
Maximum altitude 05:05:15 32° 197° (SSW) 4,167 13.0 -28.0°
Drops below altitude 10° 05:16:47 10° 141° (SE) 4,591 13.9 -26.3°
Sets 05:20:11 0° 131° (SE) 5,192 14.5 -25.9°
